International Skating Union - Official Site

ISU World Cup Berlin
December 5-7, 2014

Draw | Lap Times | Index | World Cup

Referee: Ekaterina  PILSHCHIKOVA  (RUS)
Starter: Roland  STEENBECK  (GER)
StartTime: EndTime: Air Temp: Ice Temp: Humidity:
12:10 12:50 15.1℃ -5.8℃ 29.4%
Result 3000m Ladies Division B
Rankings as of Dec 7 2014 4:36PM
Rank: No.: Name: Nation: Time: Behind: Points:
1 65 Carlijn  Achtereekte NED NED 4:00.80200m - 19.95 - (19.9)
600m - 50.52 - (30.5)
1000m - 1:21.63 - (31.1)
1400m - 1:53.21 - (31.5)
1800m - 2:25.05 - (31.8)
2200m - 2:57.07 - (32.0)
2600m - 3:29.01 - (31.9)
3000m - 4:00.80 - (31.7)
32
2 74 Carien  Kleibeuker NED NED 4:03.79200m - 21.34 - (21.3)
600m - 52.71 - (31.3)
1000m - 1:24.17 - (31.4)
1400m - 1:56.09 - (31.9)
1800m - 2:28.08 - (31.9)
2200m - 2:59.97 - (31.8)
2600m - 3:31.95 - (31.9)
3000m - 4:03.79 - (31.8)
2.99 27
3 90 Katarzyna  Wozniak POL POL 4:12.67200m - 20.44 - (20.4)
600m - 51.72 - (31.2)
1000m - 1:23.96 - (32.2)
1400m - 1:56.63 - (32.6)
1800m - 2:29.42 - (32.7)
2200m - 3:02.91 - (33.4)
2600m - 3:37.43 - (34.5)
3000m - 4:12.67 - (35.2)
11.87 23
4 42 Francesca  Lollobrigida ITA ITA 4:13.01200m - 20.52 - (20.5)
600m - 51.73 - (31.2)
1000m - 1:24.20 - (32.4)
1400m - 1:57.06 - (32.8)
1800m - 2:30.58 - (33.5)
2200m - 3:04.51 - (33.9)
2600m - 3:38.93 - (34.4)
3000m - 4:13.01 - (34.0)
12.21 19
5 5 Marina  Zueva BLR BLR 4:13.21200m - 20.57 - (20.5)
600m - 52.60 - (32.0)
1000m - 1:25.38 - (32.7)
1400m - 1:58.13 - (32.7)
1800m - 2:31.50 - (33.3)
2200m - 3:05.03 - (33.5)
2600m - 3:39.14 - (34.1)
3000m - 4:13.21 - (34.0)
12.41 15
6 37 Isabell  Ost GER GER 4:13.33200m - 20.22 - (20.2)
600m - 52.79 - (32.5)
1000m - 1:25.29 - (32.5)
1400m - 1:58.15 - (32.8)
1800m - 2:31.56 - (33.4)
2200m - 3:05.11 - (33.5)
2600m - 3:39.09 - (33.9)
3000m - 4:13.33 - (34.2)
12.53 11
7 22 Xin  Zhao CHN CHN 4:14.29200m - 20.70 - (20.6)
600m - 53.10 - (32.4)
1000m - 1:25.24 - (32.1)
1400m - 1:57.94 - (32.7)
1800m - 2:31.03 - (33.0)
2200m - 3:04.87 - (33.8)
2600m - 3:39.56 - (34.6)
3000m - 4:14.29 - (34.7)
13.49 9
8 101 Natalya  Voronina RUS RUS 4:14.45200m - 20.58 - (20.5)
600m - 52.36 - (31.7)
1000m - 1:24.29 - (31.9)
1400m - 1:57.71 - (33.4)
1800m - 2:31.35 - (33.6)
2200m - 3:05.37 - (34.0)
2600m - 3:39.64 - (34.2)
3000m - 4:14.45 - (34.8)
13.65 7
9 17 Jing  Liu CHN CHN 4:15.37200m - 20.58 - (20.5)
600m - 52.29 - (31.7)
1000m - 1:25.28 - (32.9)
1400m - 1:58.26 - (32.9)
1800m - 2:32.27 - (34.0)
2200m - 3:06.27 - (34.0)
2600m - 3:40.80 - (34.5)
3000m - 4:15.37 - (34.5)
14.57 6
10 29 Saskia  Alusalu EST EST 4:15.41200m - 21.16 - (21.1)
600m - 53.09 - (31.9)
1000m - 1:25.87 - (32.7)
1400m - 1:58.88 - (33.0)
1800m - 2:32.41 - (33.5)
2200m - 3:06.46 - (34.0)
2600m - 3:40.61 - (34.1)
3000m - 4:15.41 - (34.7)
14.61 5
11 88 Aleksandra  Goss POL POL 4:15.42200m - 20.63 - (20.6)
600m - 52.42 - (31.7)
1000m - 1:24.73 - (32.3)
1400m - 1:57.61 - (32.8)
1800m - 2:31.24 - (33.6)
2200m - 3:05.49 - (34.2)
2600m - 3:40.40 - (34.9)
3000m - 4:15.42 - (35.0)
14.62 4
12 14 Josie  Spence CAN CAN 4:16.30200m - 20.67 - (20.6)
600m - 52.60 - (31.9)
1000m - 1:25.35 - (32.7)
1400m - 1:58.68 - (33.3)
1800m - 2:32.47 - (33.7)
2200m - 3:06.90 - (34.4)
2600m - 3:41.50 - (34.5)
3000m - 4:16.30 - (34.8)
15.50 3
13 31 Jennifer  Bay GER GER 4:16.94200m - 20.88 - (20.8)
600m - 52.94 - (32.0)
1000m - 1:26.23 - (33.2)
1400m - 1:59.85 - (33.6)
1800m - 2:33.77 - (33.9)
2200m - 3:07.77 - (34.0)
2600m - 3:42.13 - (34.3)
3000m - 4:16.94 - (34.8)
16.14 2
14 53 Risa  Takayama JPN JPN 4:17.18200m - 20.92 - (20.9)
600m - 52.85 - (31.9)
1000m - 1:25.40 - (32.5)
1400m - 1:58.64 - (33.2)
1800m - 2:32.54 - (33.8)
2200m - 3:06.67 - (34.1)
2600m - 3:41.90 - (35.2)
3000m - 4:17.18 - (35.2)
16.38 1
15 50 Maki  Tabata JPN JPN 4:17.44200m - 20.57 - (20.5)
600m - 51.60 - (31.0)
1000m - 1:24.21 - (32.6)
1400m - 1:57.57 - (33.3)
1800m - 2:32.02 - (34.4)
2200m - 3:06.52 - (34.5)
2600m - 3:41.77 - (35.2)
3000m - 4:17.44 - (35.6)
16.64 0
16 63 Cho-Weon  Park KOR KOR 4:17.66200m - 20.70 - (20.6)
600m - 52.20 - (31.5)
1000m - 1:24.28 - (32.0)
1400m - 1:57.32 - (33.0)
1800m - 2:31.24 - (33.9)
2200m - 3:06.18 - (34.9)
2600m - 3:41.67 - (35.4)
3000m - 4:17.66 - (35.9)
16.86 0
17 11 Lauren  McGuire CAN CAN 4:19.75200m - 21.03 - (21.0)
600m - 53.01 - (31.9)
1000m - 1:25.46 - (32.4)
1400m - 1:58.89 - (33.4)
1800m - 2:33.20 - (34.3)
2200m - 3:08.47 - (35.2)
2600m - 3:43.97 - (35.5)
3000m - 4:19.75 - (35.7)
18.95 0
18 58 Ye Jin  Jun KOR KOR 4:20.24200m - 20.91 - (20.9)
600m - 52.67 - (31.7)
1000m - 1:25.86 - (33.1)
1400m - 1:59.39 - (33.5)
1800m - 2:33.86 - (34.4)
2200m - 3:08.95 - (35.0)
2600m - 3:44.43 - (35.4)
3000m - 4:20.24 - (35.8)
19.44 0
19 104 Maria  Lamb USA USA 4:20.27200m - 21.16 - (21.1)
600m - 53.95 - (32.7)
1000m - 1:27.44 - (33.4)
1400m - 2:01.14 - (33.7)
1800m - 2:35.26 - (34.1)
2200m - 3:09.55 - (34.2)
2600m - 3:44.52 - (34.9)
3000m - 4:20.27 - (35.7)
19.47 0
20 89 Urszula  Wlodarczyk POL POL 4:20.83200m - 21.28 - (21.2)
600m - 53.35 - (32.0)
1000m - 1:26.50 - (33.1)
1400m - 2:00.45 - (33.9)
1800m - 2:34.98 - (34.5)
2200m - 3:09.84 - (34.8)
2600m - 3:45.31 - (35.4)
3000m - 4:20.84 - (35.5)
20.04 0
21 87 Angelika  Fudalej POL POL 4:20.95200m - 20.66 - (20.6)
600m - 52.56 - (31.9)
1000m - 1:25.45 - (32.8)
1400m - 1:59.67 - (34.2)
1800m - 2:34.24 - (34.5)
2200m - 3:09.27 - (35.0)
2600m - 3:44.84 - (35.5)
3000m - 4:20.95 - (36.0)
20.15 0
22 106 Carlijn  Schoutens USA USA 4:22.02200m - 21.40 - (21.3)
600m - 54.18 - (32.7)
1000m - 1:27.47 - (33.2)
1400m - 2:01.68 - (34.2)
1800m - 2:35.92 - (34.2)
2200m - 3:10.95 - (35.0)
2600m - 3:46.21 - (35.2)
3000m - 4:22.02 - (35.7)
21.22 0
23 27 Nikola  Zdráhalova CZE CZE 4:23.97200m - 20.12 - (20.1)
600m - 52.38 - (32.2)
1000m - 1:25.84 - (33.4)
1400m - 2:00.18 - (34.3)
1800m - 2:35.94 - (35.7)
2200m - 3:11.77 - (35.8)
2600m - 3:47.89 - (36.1)
3000m - 4:23.97 - (36.0)
23.17 0
24 102 Eva  Lagrange SWE SWE 4:27.21200m - 21.19 - (21.1)
600m - 54.05 - (32.8)
1000m - 1:28.73 - (34.6)
1400m - 2:03.70 - (34.9)
1800m - 2:38.85 - (35.1)
2200m - 3:14.73 - (35.8)
2600m - 3:50.84 - (36.1)
3000m - 4:27.21 - (36.3)
26.41 0
25 28 Elena Moeller  Rigas DEN DEN 4:32.70200m - 21.47 - (21.4)
600m - 54.95 - (33.4)
1000m - 1:28.95 - (34.0)
1400m - 2:04.08 - (35.1)
1800m - 2:39.52 - (35.4)
2200m - 3:16.00 - (36.4)
2600m - 3:53.73 - (37.7)
3000m - 4:32.70 - (38.9)
31.90 0
26 91 Luiza  Zlotkowska POL POL DNF200m - 20.31 - (20.3)
600m - 51.97 - (31.6)
1000m - 1:24.65 - (32.6)
1400m - 1:57.06 - (32.4)
1800m - 2:29.92 - (32.8)
2200m - 3:02.88 - (32.9)
0